| time (UTC) | temp F | wind direction | speed MPH | gust MPH | rain 1hr in | rain 24hr in | rain mn in | humidity % | barometer mb |
| 20260509044723 | 53 | 247 | 3.0 | 3.0 | 0.00 | 0.07 | 0.07 | 96 | 1007.1 |
| 20260509044221 | 54 | 238 | 2.0 | 2.0 | 0.00 | 0.07 | 0.07 | 96 | 1007.0 |
| 20260509043716 | 53 | 236 | 1.0 | 2.0 | 0.00 | 0.07 | 0.07 | 96 | 1007.1 |
| 20260509043212 | 54 | 239 | 1.0 | 1.0 | 0.00 | 0.07 | 0.07 | 96 | 1007.1 |
| 20260509042709 | 54 | 219 | 2.0 | 2.0 | 0.00 | 0.07 | 0.07 | 96 | 1007.2 |
| 20260509042205 | 53 | 208 | 3.0 | 3.0 | 0.00 | 0.07 | 0.07 | 96 | 1007.2 |
| 20260509041702 | 53 | 236 | 1.0 | 2.0 | 0.00 | 0.07 | 0.07 | 96 | 1007.2 |
| 20260509041159 | 53 | 241 | 2.0 | 2.0 | 0.00 | 0.07 | 0.07 | 96 | 1007.0 |
| 20260509040658 | 53 | 214 | 2.0 | 2.0 | 0.00 | 0.07 | 0.07 | 96 | 1007.1 |
| 20260509040154 | 53 | 221 | 2.0 | 2.0 | 0.00 | 0.07 | 0.07 | 96 | 1007.3 |
| 20260509035651 | 54 | 233 | 1.0 | 1.0 | 0.00 | 0.07 | 0.07 | 96 | 1007.3 |
| 20260509035148 | 54 | 237 | 2.0 | 2.0 | 0.00 | 0.07 | 0.07 | 96 | 1007.5 |
| 20260509034645 | 54 | 240 | 1.0 | 1.0 | 0.00 | 0.07 | 0.07 | 96 | 1007.5 |
| 20260509034142 | 54 | 225 | 1.0 | 2.0 | 0.00 | 0.07 | 0.07 | 96 | 1007.5 |
| 20260509033639 | 54 | 239 | 1.0 | 1.0 | 0.00 | 0.07 | 0.07 | 96 | 1007.4 |
| 20260509033136 | 54 | 215 | 3.0 | 3.0 | 0.00 | 0.07 | 0.07 | 96 | 1007.3 |
| 20260509032633 | 54 | 242 | 1.0 | 2.0 | 0.00 | 0.07 | 0.07 | 96 | 1007.4 |
| 20260509032130 | 54 | 232 | 2.0 | 2.0 | 0.00 | 0.07 | 0.07 | 96 | 1007.7 |
| 20260509031628 | 54 | 230 | 2.0 | 2.0 | 0.00 | 0.07 | 0.07 | 96 | 1007.3 |
| 20260509031125 | 54 | 229 | 2.0 | 2.0 | 0.00 | 0.07 | 0.07 | 96 | 1007.3 |
| 20260509030623 | 54 | 218 | 2.0 | 2.0 | 0.00 | 0.07 | 0.07 | 96 | 1007.4 |
| 20260509030120 | 54 | 228 | 1.0 | 1.0 | 0.00 | 0.07 | 0.07 | 96 | 1007.4 |
| 20260509025616 | 54 | 241 | 1.0 | 1.0 | 0.00 | 0.07 | 0.07 | 96 | 1007.3 |
| 20260509025112 | 54 | 227 | 1.0 | 2.0 | 0.00 | 0.07 | 0.07 | 96 | 1007.4 |
| 20260509024607 | 55 | 216 | 2.0 | 2.0 | 0.00 | 0.07 | 0.07 | 95 | 1007.1 |
| 20260509024104 | 54 | 226 | 2.0 | 2.0 | 0.00 | 0.07 | 0.07 | 95 | 1007.2 |
| 20260509023602 | 54 | 221 | 3.0 | 3.0 | 0.00 | 0.07 | 0.07 | 95 | 1007.2 |
| 20260509023059 | 55 | 218 | 1.0 | 2.0 | 0.00 | 0.07 | 0.07 | 95 | 1007.2 |
| 20260509022555 | 55 | 230 | 1.0 | 1.0 | 0.00 | 0.07 | 0.07 | 95 | 1007.1 |
| 20260509022053 | 55 | 222 | 0.0 | 1.0 | 0.00 | 0.07 | 0.07 | 95 | 1006.9 |
| 20260509021549 | 55 | 221 | 2.0 | 2.0 | 0.00 | 0.07 | 0.07 | 95 | 1006.9 |
| 20260509021046 | 55 | 198 | 2.0 | 3.0 | 0.00 | 0.07 | 0.07 | 94 | 1007.1 |
| 20260509020545 | 55 | 202 | 1.0 | 1.0 | 0.00 | 0.07 | 0.07 | 94 | 1006.7 |
| 20260509020041 | 55 | 199 | 2.0 | 2.0 | 0.00 | 0.07 | 0.07 | 94 | 1006.7 |
| 20260509015541 | 55 | 187 | 1.0 | 1.0 | 0.00 | 0.07 | 0.07 | 93 | 1006.8 |
| 20260509015037 | 55 | 168 | 1.0 | 2.0 | 0.00 | 0.07 | 0.07 | 93 | 1006.7 |
| 20260509014534 | 55 | 198 | 2.0 | 2.0 | 0.00 | 0.07 | 0.07 | 93 | 1006.8 |
| 20260509014030 | 55 | 206 | 1.0 | 1.0 | 0.00 | 0.07 | 0.07 | 93 | 1006.7 |
| 20260509013527 | 56 | 189 | 1.0 | 1.0 | 0.00 | 0.07 | 0.07 | 92 | 1006.6 |
| 20260509013022 | 56 | 166 | 1.0 | 1.0 | 0.00 | 0.07 | 0.07 | 92 | 1006.7 |
| 20260509012520 | 57 | 201 | 0.0 | 0.0 | 0.00 | 0.07 | 0.07 | 90 | 1006.8 |
| 20260509012016 | 57 | 206 | 1.0 | 1.0 | 0.00 | 0.07 | 0.07 | 89 | 1006.8 |
| 20260509011515 | 57 | 210 | 0.0 | 0.0 | 0.00 | 0.07 | 0.07 | 89 | 1006.7 |
| 20260509011011 | 57 | 209 | 0.0 | 1.0 | 0.00 | 0.07 | 0.07 | 89 | 1006.8 |
| 20260509010509 | 58 | 200 | 1.0 | 1.0 | 0.00 | 0.07 | 0.07 | 87 | 1006.8 |
| 20260509010006 | 58 | 205 | 1.0 | 1.0 | 0.00 | 0.07 | 0.07 | 87 | 1006.7 |
| 20260509005504 | 59 | 209 | 1.0 | 1.0 | 0.00 | 0.07 | 0.07 | 85 | 1006.8 |
| 20260509005003 | 59 | 210 | 2.0 | 2.0 | 0.00 | 0.07 | 0.07 | 85 | 1006.4 |
| 20260509004501 | 59 | 199 | 2.0 | 2.0 | 0.00 | 0.07 | 0.07 | 85 | 1006.6 |
| 20260509003958 | 59 | 230 | 1.0 | 1.0 | 0.00 | 0.07 | 0.07 | 84 | 1006.6 |
| 20260509003456 | 59 | 205 | 2.0 | 2.0 | 0.00 | 0.07 | 0.07 | 84 | 1006.7 |
| 20260509002953 | 59 | 181 | 2.0 | 2.0 | 0.00 | 0.07 | 0.07 | 84 | 1006.4 |
| 20260509002451 | 60 | 226 | 1.0 | 1.0 | 0.00 | 0.07 | 0.07 | 83 | 1006.6 |
| 20260509001948 | 60 | 224 | 0.0 | 1.0 | 0.00 | 0.07 | 0.07 | 82 | 1006.4 |
| 20260509001444 | 60 | 199 | 2.0 | 2.0 | 0.00 | 0.07 | 0.07 | 81 | 1006.7 |
| 20260509000941 | 60 | 195 | 3.0 | 3.0 | 0.00 | 0.07 | 0.07 | 81 | 1006.6 |
| 20260509000440 | 60 | 199 | 3.0 | 3.0 | 0.00 | 0.07 | 0.07 | 80 | 1006.7 |
| 20260508235935 | 61 | 183 | 3.0 | 3.0 | 0.00 | 0.07 | 0.07 | 80 | 1006.8 |
| 20260508235433 | 61 | 205 | 2.0 | 2.0 | 0.00 | 0.07 | 0.07 | 80 | 1007.0 |
| 20260508234929 | 61 | 219 | 2.0 | 2.0 | 0.00 | 0.07 | 0.07 | 80 | 1007.2 |
| 20260508234426 | 61 | 233 | 1.0 | 1.0 | 0.00 | 0.07 | 0.07 | 80 | 1007.2 |
| 20260508233923 | 61 | 208 | 1.0 | 1.0 | 0.00 | 0.07 | 0.07 | 80 | 1007.3 |
| 20260508233423 | 61 | 222 | 1.0 | 2.0 | 0.00 | 0.07 | 0.07 | 80 | 1007.2 |
| 20260508232919 | 61 | 224 | 1.0 | 1.0 | 0.00 | 0.07 | 0.07 | 81 | 1007.2 |
| 20260508232416 | 61 | 201 | 3.0 | 3.0 | 0.00 | 0.07 | 0.07 | 81 | 1007.4 |
| 20260508231913 | 61 | 219 | 1.0 | 1.0 | 0.00 | 0.07 | 0.07 | 82 | 1007.2 |
| 20260508231410 | 61 | 207 | 2.0 | 2.0 | 0.00 | 0.07 | 0.07 | 81 | 1007.5 |
| 20260508230907 | 61 | 206 | 2.0 | 2.0 | 0.00 | 0.07 | 0.07 | 81 | 1007.2 |
| 20260508230403 | 61 | 244 | 1.0 | 1.0 | 0.00 | 0.07 | 0.07 | 80 | 1007.4 |
| 20260508225855 | 61 | 225 | 2.0 | 2.0 | 0.00 | 0.07 | 0.07 | 80 | 1007.6 |
| 20260508225352 | 61 | 222 | 2.0 | 2.0 | 0.00 | 0.07 | 0.07 | 80 | 1007.3 |
| 20260508224850 | 61 | 228 | 2.0 | 3.0 | 0.00 | 0.07 | 0.07 | 80 | 1007.2 |
| 20260508224347 | 61 | 252 | 2.0 | 2.0 | 0.00 | 0.07 | 0.07 | 79 | 1007.4 |
| 20260508223845 | 61 | 236 | 1.0 | 1.0 | 0.00 | 0.07 | 0.07 | 79 | 1007.3 |
| 20260508223342 | 61 | 240 | 1.0 | 1.0 | 0.00 | 0.07 | 0.07 | 78 | 1007.5 |
| 20260508222839 | 61 | 229 | 2.0 | 2.0 | 0.00 | 0.07 | 0.07 | 78 | 1007.5 |
| 20260508222336 | 61 | 238 | 3.0 | 3.0 | 0.00 | 0.07 | 0.07 | 77 | 1007.5 |
| 20260508221833 | 61 | 243 | 2.0 | 2.0 | 0.00 | 0.07 | 0.07 | 77 | 1007.5 |
| 20260508221328 | 61 | 215 | 1.0 | 1.0 | 0.00 | 0.07 | 0.07 | 77 | 1007.3 |
| 20260508220825 | 61 | 240 | 2.0 | 2.0 | 0.00 | 0.07 | 0.07 | 77 | 1007.5 |
| 20260508220321 | 61 | 260 | 3.0 | 3.0 | 0.00 | 0.07 | 0.07 | 77 | 1007.5 |
| 20260508215818 | 61 | 253 | 4.0 | 5.0 | 0.00 | 0.07 | 0.07 | 77 | 1007.5 |
| 20260508215315 | 61 | 249 | 2.0 | 2.0 | 0.00 | 0.07 | 0.07 | 77 | 1007.6 |
| 20260508214812 | 61 | 249 | 5.0 | 7.0 | 0.00 | 0.07 | 0.07 | 77 | 1007.4 |
| 20260508214309 | 62 | 221 | 3.0 | 3.0 | 0.00 | 0.07 | 0.07 | 78 | 1007.7 |
| 20260508213805 | 61 | 208 | 3.0 | 6.0 | 0.00 | 0.07 | 0.07 | 78 | 1007.5 |
| 20260508213302 | 62 | 202 | 5.0 | 7.0 | 0.00 | 0.07 | 0.07 | 78 | 1007.7 |
| 20260508212758 | 61 | 237 | 4.0 | 6.0 | 0.00 | 0.07 | 0.07 | 78 | 1007.6 |
| 20260508212255 | 61 | 180 | 3.0 | 5.0 | 0.00 | 0.07 | 0.07 | 79 | 1007.7 |
| 20260508211750 | 61 | 252 | 3.0 | 5.0 | 0.00 | 0.07 | 0.07 | 79 | 1007.6 |
| 20260508211246 | 61 | 182 | 5.0 | 6.0 | 0.00 | 0.07 | 0.07 | 78 | 1007.5 |
| 20260508210744 | 62 | 216 | 5.0 | 8.0 | 0.00 | 0.07 | 0.07 | 76 | 1007.7 |
| 20260508210241 | 63 | 253 | 2.0 | 2.0 | 0.00 | 0.07 | 0.07 | 75 | 1007.6 |
| 20260508205738 | 62 | 240 | 3.0 | 3.0 | 0.00 | 0.07 | 0.07 | 76 | 1007.5 |
| 20260508205234 | 62 | 232 | 3.0 | 3.0 | 0.00 | 0.07 | 0.07 | 73 | 1007.6 |
| 20260508204730 | 61 | 224 | 3.0 | 3.0 | 0.00 | 0.07 | 0.07 | 75 | 1007.5 |
| 20260508204227 | 61 | 227 | 3.0 | 5.0 | 0.00 | 0.07 | 0.07 | 74 | 1007.8 |
| 20260508203723 | 61 | 226 | 5.0 | 7.0 | 0.00 | 0.07 | 0.07 | 75 | 1007.8 |
| 20260508203219 | 61 | 187 | 3.0 | 5.0 | 0.00 | 0.07 | 0.07 | 77 | 1007.9 |
| 20260508202715 | 62 | 229 | 4.0 | 5.0 | 0.00 | 0.07 | 0.07 | 80 | 1007.9 |
| 20260508202213 | 62 | 237 | 2.0 | 2.0 | 0.00 | 0.07 | 0.07 | 83 | 1007.9 |
| 20260508201710 | 62 | 198 | 6.0 | 7.0 | 0.00 | 0.07 | 0.07 | 83 | 1008.2 |
| 20260508201206 | 62 | 196 | 4.0 | 6.0 | 0.00 | 0.07 | 0.07 | 83 | 1008.1 |
| 20260508200703 | 62 | 227 | 0.0 | 1.0 | 0.00 | 0.07 | 0.07 | 83 | 1008.3 |
| 20260508200159 | 62 | 215 | 2.0 | 3.0 | 0.00 | 0.07 | 0.07 | 84 | 1008.2 |
| 20260508195656 | 62 | 229 | 1.0 | 1.0 | 0.00 | 0.07 | 0.07 | 86 | 1008.4 |
| 20260508195152 | 62 | 228 | 0.0 | 0.0 | 0.00 | 0.07 | 0.07 | 86 | 1008.4 |
| 20260508194649 | 61 | 226 | 1.0 | 1.0 | 0.00 | 0.07 | 0.07 | 87 | 1008.6 |
| 20260508194146 | 61 | 227 | 1.0 | 1.0 | 0.00 | 0.07 | 0.07 | 87 | 1008.6 |
| 20260508193643 | 61 | 222 | 2.0 | 2.0 | 0.00 | 0.07 | 0.07 | 87 | 1008.4 |
| 20260508193139 | 60 | 229 | 1.0 | 2.0 | 0.00 | 0.07 | 0.07 | 88 | 1008.3 |
| 20260508192636 | 60 | 229 | 1.0 | 1.0 | 0.00 | 0.07 | 0.07 | 90 | 1008.4 |
| 20260508192134 | 59 | 202 | 3.0 | 5.0 | 0.00 | 0.07 | 0.07 | 92 | 1008.5 |
| 20260508191630 | 59 | 194 | 3.0 | 3.0 | 0.00 | 0.07 | 0.07 | 94 | 1008.4 |
| 20260508191127 | 59 | 217 | 0.0 | 1.0 | 0.00 | 0.07 | 0.07 | 95 | 1008.4 |
| 20260508190625 | 58 | 213 | 2.0 | 2.0 | 0.00 | 0.07 | 0.07 | 95 | 1008.6 |
| 20260508190121 | 57 | 223 | 1.0 | 1.0 | 0.00 | 0.07 | 0.07 | 95 | 1008.5 |
| 20260508185618 | 57 | 203 | 2.0 | 2.0 | 0.00 | 0.07 | 0.07 | 96 | 1008.5 |
| 20260508185115 | 58 | 230 | 0.0 | 1.0 | 0.00 | 0.07 | 0.07 | 96 | 1008.5 |
| 20260508184612 | 58 | 227 | 0.0 | 1.0 | 0.00 | 0.07 | 0.07 | 96 | 1008.7 |
| 20260508184109 | 57 | 224 | 0.0 | 0.0 | 0.00 | 0.07 | 0.07 | 96 | 1008.4 |
| 20260508183606 | 57 | 224 | 0.0 | 1.0 | 0.00 | 0.07 | 0.07 | 96 | 1008.5 |
| 20260508183102 | 57 | 183 | 3.0 | 3.0 | 0.00 | 0.07 | 0.07 | 96 | 1008.4 |
| 20260508182558 | 56 | 168 | 2.0 | 3.0 | 0.00 | 0.07 | 0.07 | 96 | 1008.5 |
| 20260508182055 | 56 | 190 | 1.0 | 2.0 | 0.00 | 0.07 | 0.07 | 96 | 1008.4 |
| 20260508181549 | 56 | 178 | 1.0 | 2.0 | 0.00 | 0.07 | 0.07 | 96 | 1008.4 |
| 20260508181048 | 56 | 190 | 2.0 | 2.0 | 0.00 | 0.07 | 0.07 | 96 | 1008.7 |
| 20260508180544 | 56 | 205 | 1.0 | 1.0 | 0.00 | 0.07 | 0.07 | 96 | 1008.9 |
| 20260508180041 | 56 | 209 | 0.0 | 0.0 | 0.07 | 0.07 | 0.07 | 96 | 1008.7 |
| 20260508175537 | 56 | 186 | 0.0 | 1.0 | 0.07 | 0.07 | 0.07 | 96 | 1008.7 |
| 20260508175035 | 55 | 160 | 3.0 | 3.0 | 0.00 | 0.06 | 0.06 | 96 | 1008.5 |
| 20260508174532 | 55 | 147 | 3.0 | 3.0 | 0.00 | 0.06 | 0.06 | 96 | 1008.9 |
| 20260508174029 | 55 | 189 | 1.0 | 1.0 | 0.00 | 0.06 | 0.06 | 96 | 1009.3 |
| 20260508173526 | 55 | 193 | 1.0 | 2.0 | 0.00 | 0.06 | 0.06 | 96 | 1009.4 |
| 20260508173022 | 55 | 213 | 1.0 | 1.0 | 0.00 | 0.06 | 0.06 | 96 | 1009.6 |
| 20260508172519 | 55 | 226 | 1.0 | 1.0 | 0.00 | 0.06 | 0.06 | 96 | 1009.9 |
| 20260508172015 | 55 | 221 | 0.0 | 0.0 | 0.00 | 0.06 | 0.06 | 96 | 1009.7 |
| 20260508171512 | 55 | 221 | 0.0 | 1.0 | 0.05 | 0.06 | 0.06 | 96 | 1009.8 |
| 20260508171009 | 55 | 215 | 1.0 | 1.0 | 0.05 | 0.06 | 0.06 | 96 | 1009.9 |
| 20260508170506 | 54 | 225 | 1.0 | 1.0 | 0.00 | 0.05 | 0.05 | 95 | 1010.0 |
| 20260508170003 | 54 | 227 | 0.0 | 1.0 | 0.00 | 0.05 | 0.05 | 95 | 1009.8 |
| 20260508165501 | 55 | 243 | 1.0 | 1.0 | 0.00 | 0.05 | 0.05 | 95 | 1009.8 |
| 20260508164956 | 55 | 254 | 1.0 | 1.0 | 0.00 | 0.05 | 0.05 | 95 | 1009.9 |
| 20260508164453 | 55 | 235 | 1.0 | 2.0 | 0.00 | 0.05 | 0.05 | 95 | 1009.8 |
| 20260508163950 | 54 | 227 | 1.0 | 1.0 | 0.00 | 0.05 | 0.05 | 95 | 1010.1 |
| 20260508163448 | 55 | 252 | 1.0 | 1.0 | 0.00 | 0.05 | 0.05 | 95 | 1009.9 |
| 20260508162943 | 55 | 208 | 2.0 | 2.0 | 0.00 | 0.05 | 0.05 | 95 | 1010.0 |
| 20260508162442 | 54 | 212 | 2.0 | 2.0 | 0.00 | 0.05 | 0.05 | 95 | 1009.8 |
| 20260508161938 | 54 | 208 | 3.0 | 3.0 | 0.00 | 0.05 | 0.05 | 95 | 1009.6 |
| 20260508161435 | 54 | 184 | 3.0 | 3.0 | 0.07 | 0.05 | 0.05 | 95 | 1009.4 |
| 20260508160932 | 54 | 199 | 5.0 | 6.0 | 0.07 | 0.05 | 0.05 | 96 | 1009.5 |
| 20260508160432 | 54 | 265 | 0.0 | 0.0 | 0.00 | 0.04 | 0.04 | 95 | 1010.1 |
| 20260508155927 | 54 | 45 | 2.0 | 2.0 | 0.12 | 0.04 | 0.04 | 95 | 1010.2 |
| 20260508155424 | 54 | 184 | 2.0 | 2.0 | 0.12 | 0.04 | 0.04 | 95 | 1010.4 |
| 20260508154921 | 54 | 197 | 2.0 | 2.0 | 0.00 | 0.02 | 0.02 | 95 | 1010.4 |
| 20260508154419 | 53 | 225 | 0.0 | 0.0 | 0.00 | 0.02 | 0.02 | 95 | 1010.9 |
| 20260508153915 | 54 | 233 | 0.0 | 1.0 | 0.00 | 0.02 | 0.02 | 95 | 1011.0 |
| 20260508153412 | 54 | 290 | 1.0 | 1.0 | 0.00 | 0.02 | 0.02 | 95 | 1011.0 |
| 20260508152908 | 54 | 314 | 1.0 | 1.0 | 0.00 | 0.02 | 0.02 | 94 | 1011.0 |
| 20260508152405 | 54 | 249 | 1.0 | 1.0 | 0.00 | 0.02 | 0.02 | 93 | 1010.6 |
| 20260508151902 | 54 | 252 | 0.0 | 0.0 | 0.05 | 0.02 | 0.02 | 93 | 1010.7 |
| 20260508151358 | 54 | 257 | 1.0 | 1.0 | 0.05 | 0.02 | 0.02 | 92 | 1010.8 |
| 20260508150855 | 54 | 221 | 0.0 | 0.0 | 0.00 | 0.01 | 0.01 | 91 | 1010.5 |
| 20260508150352 | 54 | 204 | 1.0 | 1.0 | 0.00 | 0.01 | 0.01 | 91 | 1010.1 |
| 20260508145847 | 54 | 203 | 1.0 | 1.0 | 0.00 | 0.01 | 0.01 | 91 | 1009.9 |
| 20260508145344 | 54 | 209 | 0.0 | 1.0 | 0.07 | 0.01 | 0.01 | 89 | 1010.0 |
| 20260508144841 | 55 | 199 | 2.0 | 2.0 | 0.07 | 0.01 | 0.01 | 87 | 1010.1 |
| 20260508144339 | 55 | 226 | 1.0 | 1.0 | 0.00 | 0.00 | 0.00 | 85 | 1010.5 |
| 20260508143836 | 56 | 232 | 1.0 | 1.0 | 0.00 | 0.00 | 0.00 | 82 | 1010.3 |
| 20260508143333 | 56 | 239 | 0.0 | 1.0 | 0.00 | 0.00 | 0.00 | 80 | 1010.4 |
| 20260508142830 | 56 | 236 | 0.0 | 0.0 | 0.00 | 0.00 | 0.00 | 79 | 1010.4 |
| 20260508142326 | 56 | 226 | 1.0 | 2.0 | 0.00 | 0.00 | 0.00 | 79 | 1010.3 |
| 20260508141823 | 56 | 218 | 2.0 | 2.0 | 0.00 | 0.00 | 0.00 | 79 | 1010.3 |
| 20260508141320 | 56 | 228 | 2.0 | 3.0 | 0.00 | 0.00 | 0.00 | 78 | 1010.4 |
| 20260508140818 | 56 | 220 | 2.0 | 2.0 | 0.00 | 0.00 | 0.00 | 78 | 1010.2 |
| 20260508140314 | 56 | 203 | 2.0 | 2.0 | 0.00 | 0.00 | 0.00 | 78 | 1010.1 |
| 20260508135810 | 56 | 217 | 1.0 | 2.0 | 0.00 | 0.00 | 0.00 | 79 | 1010.4 |
| 20260508135307 | 55 | 247 | 2.0 | 2.0 | 0.00 | 0.00 | 0.00 | 80 | 1010.6 |
| 20260508134802 | 55 | 258 | 2.0 | 2.0 | 0.00 | 0.00 | 0.00 | 81 | 1010.9 |
| 20260508134300 | 55 | 236 | 1.0 | 1.0 | 0.00 | 0.00 | 0.00 | 82 | 1010.8 |
| 20260508133756 | 54 | 233 | 0.0 | 1.0 | 0.00 | 0.00 | 0.00 | 83 | 1010.8 |
| 20260508133254 | 54 | 238 | 1.0 | 1.0 | 0.00 | 0.00 | 0.00 | 83 | 1010.6 |
| 20260508132751 | 54 | 216 | 0.0 | 1.0 | 0.00 | 0.00 | 0.00 | 83 | 1010.6 |
| 20260508132248 | 54 | 213 | 1.0 | 2.0 | 0.00 | 0.00 | 0.00 | 83 | 1010.6 |
| 20260508131744 | 53 | 201 | 1.0 | 1.0 | 0.00 | 0.00 | 0.00 | 84 | 1010.5 |
| 20260508131241 | 53 | 186 | 1.0 | 1.0 | 0.00 | 0.00 | 0.00 | 83 | 1010.2 |
| 20260508130737 | 53 | 168 | 0.0 | 1.0 | 0.00 | 0.00 | 0.00 | 83 | 1010.2 |
| 20260508130235 | 53 | 148 | 1.0 | 1.0 | 0.00 | 0.00 | 0.00 | 84 | 1010.0 |
| 20260508125730 | 53 | 95 | 1.0 | 1.0 | 0.00 | 0.00 | 0.00 | 85 | 1009.9 |
| 20260508125227 | 53 | 138 | 1.0 | 1.0 | 0.00 | 0.00 | 0.00 | 86 | 1009.9 |
| 20260508124725 | 52 | 179 | 1.0 | 1.0 | 0.00 | 0.00 | 0.00 | 87 | 1009.8 |
| 20260508124222 | 52 | 190 | 0.0 | 0.0 | 0.00 | 0.00 | 0.00 | 88 | 1009.9 |
| 20260508123720 | 51 | 193 | 1.0 | 1.0 | 0.00 | 0.00 | 0.00 | 89 | 1009.8 |
| 20260508123218 | 51 | 211 | 0.0 | 0.0 | 0.00 | 0.00 | 0.00 | 89 | 1009.9 |
| 20260508122713 | 51 | 204 | 1.0 | 1.0 | 0.00 | 0.00 | 0.00 | 89 | 1009.7 |
| 20260508122211 | 51 | 248 | 0.0 | 0.0 | 0.00 | 0.00 | 0.00 | 89 | 1009.6 |
| 20260508121708 | 50 | 242 | 0.0 | 0.0 | 0.00 | 0.00 | 0.00 | 89 | 1009.7 |
| 20260508121207 | 50 | 231 | 0.0 | 0.0 | 0.00 | 0.00 | 0.00 | 89 | 1009.8 |
| 20260508120704 | 50 | 216 | 0.0 | 0.0 | 0.00 | 0.00 | 0.00 | 89 | 1009.8 |
| 20260508120202 | 50 | 216 | 0.0 | 0.0 | 0.00 | 0.00 | 0.00 | 90 | 1009.8 |
| 20260508115659 | 50 | 211 | 0.0 | 0.0 | 0.00 | 0.00 | 0.00 | 90 | 1009.7 |
| 20260508115156 | 50 | 200 | 1.0 | 2.0 | 0.00 | 0.00 | 0.00 | 90 | 1009.9 |
| 20260508114653 | 49 | 216 | 0.0 | 0.0 | 0.00 | 0.00 | 0.00 | 90 | 1009.7 |
| 20260508114149 | 49 | 216 | 0.0 | 0.0 | 0.00 | 0.00 | 0.00 | 90 | 1009.6 |
| 20260508113646 | 49 | 216 | 0.0 | 0.0 | 0.00 | 0.00 | 0.00 | 89 | 1009.5 |
| 20260508113145 | 49 | 230 | 0.0 | 0.0 | 0.00 | 0.00 | 0.00 | 88 | 1009.7 |
| 20260508112640 | 49 | 230 | 0.0 | 0.0 | 0.00 | 0.00 | 0.00 | 87 | 1009.4 |
| 20260508112137 | 50 | 230 | 0.0 | 0.0 | 0.00 | 0.00 | 0.00 | 87 | 1009.3 |
| 20260508111634 | 50 | 236 | 0.0 | 0.0 | 0.00 | 0.00 | 0.00 | 87 | 1009.4 |
| 20260508111131 | 50 | 241 | 1.0 | 1.0 | 0.00 | 0.00 | 0.00 | 87 | 1009.2 |
| 20260508110629 | 50 | 250 | 0.0 | 0.0 | 0.00 | 0.00 | 0.00 | 87 | 1009.2 |
| 20260508110125 | 50 | 255 | 1.0 | 1.0 | 0.00 | 0.00 | 0.00 | 86 | 1009.2 |
| 20260508105620 | 50 | 247 | 0.0 | 1.0 | 0.00 | 0.00 | 0.00 | 86 | 1009.4 |
| 20260508105117 | 50 | 257 | 0.0 | 0.0 | 0.00 | 0.00 | 0.00 | 85 | 1009.3 |
| 20260508104615 | 50 | 255 | 1.0 | 1.0 | 0.00 | 0.00 | 0.00 | 85 | 1009.5 |
| 20260508104111 | 51 | 263 | 0.0 | 0.0 | 0.00 | 0.00 | 0.00 | 84 | 1009.4 |
| 20260508103608 | 51 | 263 | 1.0 | 1.0 | 0.00 | 0.00 | 0.00 | 83 | 1009.3 |
| 20260508103106 | 51 | 255 | 2.0 | 2.0 | 0.00 | 0.00 | 0.00 | 82 | 1009.3 |
| 20260508102603 | 52 | 259 | 1.0 | 2.0 | 0.00 | 0.00 | 0.00 | 81 | 1009.4 |
| 20260508102101 | 52 | 268 | 4.0 | 6.0 | 0.00 | 0.00 | 0.00 | 80 | 1009.2 |
| 20260508101558 | 52 | 257 | 4.0 | 6.0 | 0.00 | 0.00 | 0.00 | 79 | 1009.2 |
| 20260508101055 | 53 | 258 | 2.0 | 2.0 | 0.00 | 0.00 | 0.00 | 79 | 1009.2 |
| 20260508100553 | 53 | 247 | 4.0 | 5.0 | 0.00 | 0.00 | 0.00 | 78 | 1009.4 |
| 20260508100049 | 53 | 247 | 3.0 | 3.0 | 0.00 | 0.00 | 0.00 | 78 | 1009.1 |
| 20260508095547 | 53 | 250 | 2.0 | 2.0 | 0.00 | 0.00 | 0.00 | 77 | 1009.1 |
| 20260508095043 | 53 | 235 | 3.0 | 3.0 | 0.00 | 0.00 | 0.00 | 77 | 1008.9 |
| 20260508094541 | 53 | 241 | 2.0 | 2.0 | 0.00 | 0.00 | 0.00 | 77 | 1008.9 |
| 20260508094037 | 53 | 244 | 3.0 | 5.0 | 0.00 | 0.00 | 0.00 | 77 | 1008.8 |
| 20260508093534 | 53 | 235 | 2.0 | 2.0 | 0.00 | 0.00 | 0.00 | 77 | 1008.9 |
| 20260508093032 | 53 | 238 | 2.0 | 2.0 | 0.00 | 0.00 | 0.00 | 77 | 1009.0 |
| 20260508092529 | 53 | 192 | 4.0 | 5.0 | 0.00 | 0.00 | 0.00 | 77 | 1008.8 |
| 20260508092028 | 53 | 249 | 3.0 | 5.0 | 0.00 | 0.00 | 0.00 | 76 | 1008.8 |
| 20260508091525 | 54 | 222 | 3.0 | 5.0 | 0.00 | 0.00 | 0.00 | 76 | 1008.8 |
| 20260508091022 | 54 | 234 | 3.0 | 3.0 | 0.00 | 0.00 | 0.00 | 76 | 1008.9 |
| 20260508090520 | 54 | 238 | 3.0 | 3.0 | 0.00 | 0.00 | 0.00 | 75 | 1008.6 |
| 20260508090016 | 54 | 230 | 2.0 | 2.0 | 0.00 | 0.00 | 0.00 | 75 | 1008.6 |
| 20260508085513 | 54 | 219 | 3.0 | 3.0 | 0.00 | 0.00 | 0.00 | 74 | 1008.7 |
| 20260508085010 | 55 | 243 | 2.0 | 2.0 | 0.00 | 0.00 | 0.00 | 74 | 1008.8 |
| 20260508084507 | 55 | 245 | 3.0 | 3.0 | 0.00 | 0.00 | 0.00 | 74 | 1008.8 |
| 20260508084004 | 55 | 233 | 3.0 | 3.0 | 0.00 | 0.00 | 0.00 | 73 | 1008.7 |
| 20260508083501 | 55 | 251 | 2.0 | 3.0 | 0.00 | 0.00 | 0.00 | 73 | 1008.7 |
| 20260508082956 | 55 | 225 | 4.0 | 5.0 | 0.00 | 0.00 | 0.00 | 73 | 1008.9 |
| 20260508082453 | 55 | 237 | 3.0 | 3.0 | 0.00 | 0.00 | 0.00 | 73 | 1008.9 |
| 20260508081951 | 55 | 254 | 3.0 | 5.0 | 0.00 | 0.00 | 0.00 | 73 | 1009.1 |
| 20260508081448 | 55 | 222 | 4.0 | 5.0 | 0.00 | 0.00 | 0.00 | 72 | 1008.9 |
| 20260508080944 | 55 | 225 | 2.0 | 2.0 | 0.00 | 0.00 | 0.00 | 72 | 1008.8 |
| 20260508080442 | 55 | 254 | 3.0 | 3.0 | 0.00 | 0.00 | 0.00 | 72 | 1009.1 |
| 20260508075939 | 55 | 243 | 5.0 | 6.0 | 0.00 | 0.00 | 0.00 | 72 | 1009.1 |
| 20260508075436 | 56 | 227 | 4.0 | 6.0 | 0.00 | 0.00 | 0.00 | 71 | 1009.0 |
| 20260508074933 | 56 | 210 | 4.0 | 5.0 | 0.00 | 0.00 | 0.00 | 71 | 1009.0 |
| 20260508074431 | 56 | 194 | 3.0 | 5.0 | 0.00 | 0.00 | 0.00 | 71 | 1009.3 |
| 20260508073927 | 56 | 202 | 4.0 | 5.0 | 0.00 | 0.00 | 0.00 | 70 | 1009.2 |
| 20260508073425 | 56 | 222 | 4.0 | 5.0 | 0.00 | 0.00 | 0.00 | 70 | 1009.4 |
| 20260508072922 | 56 | 214 | 5.0 | 6.0 | 0.00 | 0.00 | 0.00 | 70 | 1009.3 |
| 20260508072418 | 56 | 228 | 4.0 | 6.0 | 0.00 | 0.00 | 0.00 | 70 | 1009.5 |
| 20260508071916 | 56 | 238 | 5.0 | 7.0 | 0.00 | 0.00 | 0.00 | 70 | 1009.6 |
| 20260508071413 | 56 | 227 | 3.0 | 3.0 | 0.00 | 0.00 | 0.00 | 71 | 1009.6 |
| 20260508070911 | 56 | 207 | 4.0 | 5.0 | 0.00 | 0.00 | 0.00 | 70 | 1009.6 |
| 20260508070408 | 56 | 242 | 4.0 | 5.0 | 0.00 | 0.00 | 0.00 | 70 | 1009.6 |
| 20260508065906 | 56 | 195 | 5.0 | 6.0 | 0.00 | 0.00 | 0.00 | 70 | 1009.6 |
| 20260508065404 | 56 | 219 | 2.0 | 2.0 | 0.00 | 0.00 | 0.00 | 70 | 1009.6 |
| 20260508064902 | 57 | 229 | 3.0 | 5.0 | 0.00 | 0.00 | 0.00 | 69 | 1009.9 |
| 20260508064359 | 56 | 195 | 3.0 | 3.0 | 0.00 | 0.00 | 0.00 | 70 | 1009.7 |
| 20260508063857 | 56 | 224 | 5.0 | 6.0 | 0.00 | 0.00 | 0.00 | 69 | 1009.9 |
| 20260508063354 | 56 | 235 | 4.0 | 6.0 | 0.00 | 0.00 | 0.00 | 70 | 1010.0 |
| 20260508062851 | 56 | 217 | 3.0 | 5.0 | 0.00 | 0.00 | 0.00 | 69 | 1009.8 |
| 20260508062349 | 56 | 199 | 3.0 | 5.0 | 0.00 | 0.00 | 0.00 | 69 | 1010.0 |
| 20260508061846 | 57 | 219 | 2.0 | 2.0 | 0.00 | 0.00 | 0.00 | 69 | 1010.0 |
| 20260508061343 | 57 | 195 | 4.0 | 5.0 | 0.00 | 0.00 | 0.00 | 68 | 1010.2 |
| 20260508060839 | 57 | 187 | 3.0 | 3.0 | 0.00 | 0.00 | 0.00 | 68 | 1010.3 |
| 20260508060337 | 57 | 234 | 3.0 | 5.0 | 0.00 | 0.00 | 0.00 | 68 | 1010.1 |
| 20260508055832 | 57 | 226 | 3.0 | 3.0 | 0.00 | 0.00 | 0.00 | 67 | 1010.2 |
| 20260508055330 | 57 | 224 | 4.0 | 5.0 | 0.00 | 0.00 | 0.00 | 68 | 1010.4 |
| 20260508054826 | 57 | 218 | 4.0 | 5.0 | 0.00 | 0.00 | 0.00 | 68 | 1010.4 |
| 20260508054324 | 57 | 220 | 3.0 | 3.0 | 0.00 | 0.00 | 0.00 | 69 | 1010.3 |
| 20260508053820 | 57 | 193 | 3.0 | 3.0 | 0.00 | 0.00 | 0.00 | 69 | 1010.5 |
| 20260508053318 | 57 | 228 | 3.0 | 3.0 | 0.00 | 0.00 | 0.00 | 69 | 1010.3 |
| 20260508052815 | 57 | 231 | 4.0 | 6.0 | 0.00 | 0.00 | 0.00 | 68 | 1010.3 |
| 20260508052312 | 57 | 204 | 3.0 | 3.0 | 0.00 | 0.00 | 0.00 | 69 | 1010.5 |
| 20260508051808 | 57 | 234 | 3.0 | 5.0 | 0.00 | 0.00 | 0.00 | 69 | 1010.5 |
| 20260508051304 | 57 | 236 | 2.0 | 3.0 | 0.00 | 0.00 | 0.00 | 68 | 1010.5 |
| 20260508050801 | 57 | 228 | 3.0 | 5.0 | 0.00 | 0.00 | 0.00 | 68 | 1010.4 |
| 20260508050258 | 57 | 231 | 3.0 | 3.0 | 0.00 | 0.00 | 0.00 | 68 | 1010.6 |
| 20260508045753 | 57 | 233 | 3.0 | 3.0 | 0.00 | 0.00 | 0.00 | 68 | 1010.5 |
| 20260508045251 | 57 | 224 | 3.0 | 3.0 | 0.00 | 0.00 | 0.00 | 68 | 1010.8 |